TimeAKST,TemperatureF,Dew PointF,Humidity,Sea Level PressureIn,VisibilityMPH,Wind Direction,Wind SpeedMPH,Gust SpeedMPH,PrecipitationIn,Events,Conditions,WindDirDegrees,DateUTC
12:53 AM,-7.1,-11.0,83,30.14,10.0,Calm,Calm,-,N/A,,Clear,0,2011-11-18 09:53:00
1:53 AM,-4.0,-9.9,76,30.10,10.0,Calm,Calm,-,N/A,,Clear,0,2011-11-18 10:53:00
3:53 AM,-2.0,-7.1,79,30.06,10.0,NE,3.5,-,N/A,,Clear,50,2011-11-18 12:53:00
4:53 AM,-0.0,-5.1,79,30.06,10.0,Calm,Calm,-,N/A,,Clear,0,2011-11-18 13:53:00
5:53 AM,-0.0,-4.0,83,30.05,10.0,NNE,3.5,-,N/A,,Clear,30,2011-11-18 14:53:00
6:53 AM,1.0,-6.0,72,30.04,10.0,Calm,Calm,-,N/A,,Clear,0,2011-11-18 15:53:00
7:53 AM,-4.0,-7.1,87,30.05,10.0,Calm,Calm,-,N/A,,Clear,0,2011-11-18 16:53:00
8:53 AM,-6.0,-11.0,79,30.04,10.0,NNE,4.6,-,N/A,,Clear,20,2011-11-18 17:53:00
9:53 AM,-0.9,-7.1,75,30.06,10.0,NNE,5.8,-,N/A,,Clear,20,2011-11-18 18:53:00
10:53 AM,-0.0,-6.0,76,30.06,10.0,Calm,Calm,-,N/A,,Clear,0,2011-11-18 19:53:00
11:53 AM,1.9,-5.1,72,30.06,10.0,Calm,Calm,-,N/A,,Clear,0,2011-11-18 20:53:00
12:53 PM,5.0,-4.0,66,30.06,10.0,Calm,Calm,-,N/A,,Clear,0,2011-11-18 21:53:00
1:53 PM,6.1,-4.0,63,30.06,10.0,Calm,Calm,-,N/A,,Clear,0,2011-11-18 22:53:00
2:53 PM,10.9,-0.0,61,30.07,10.0,Calm,Calm,-,N/A,,Clear,0,2011-11-18 23:53:00
3:53 PM,10.9,1.9,67,30.07,10.0,Calm,Calm,-,N/A,,Clear,0,2011-11-19 00:53:00
4:53 PM,-0.9,-7.1,75,30.09,10.0,East,5.8,-,N/A,,Clear,80,2011-11-19 01:53:00
5:53 PM,-2.9,-7.1,82,30.10,10.0,Calm,Calm,-,N/A,,Clear,0,2011-11-19 02:53:00
6:53 PM,-7.1,-11.0,83,30.11,10.0,Calm,Calm,-,N/A,,Clear,0,2011-11-19 03:53:00
7:53 PM,-6.0,-11.0,79,30.10,10.0,East,6.9,-,N/A,,Clear,80,2011-11-19 04:53:00
8:53 PM,-5.1,-9.9,80,30.12,10.0,East,6.9,-,N/A,,Clear,80,2011-11-19 05:53:00
9:53 PM,-11.9,-17.0,78,30.13,10.0,NE,5.8,-,N/A,,Clear,50,2011-11-19 06:53:00
10:53 PM,-11.9,-17.0,78,30.13,10.0,Calm,Calm,-,N/A,,Clear,0,2011-11-19 07:53:00
11:53 PM,-9.9,-14.1,82,30.13,10.0,Calm,Calm,-,N/A,,Clear,0,2011-11-19 08:53:00